Other Surface Observations
Issued by NWS

Home | Current Version | Previous Version | Text Only | Print | Product List | Glossary On
Versions: 1 2 3 4 5 6 7 8 9 10 11 12 13 14 15 16 17 18 19 20 21 22 23 24 25 26 27 28 29 30 31 32 33 34 35 36 37 38 39 40 41 42 43 44 45 46 47 48 49 50
000
SXUS52 KTAE 260718
OSOTAE
OSOTAE
North Florida/South Alabama/Southwest Georgia Weather Roundup
National Weather Service Tallahassee Florida
300 AM EDT FRI AUG 26 2016

Note: "fair" indicates few or no clouds below 12,000 feet with no
significant weather and/or obstructions to visibility.

!FLZ017-115-028-034-025-260800
...North Florida...

CITY           SKY/WX    TMP DP  RH WIND       PRES   REMARKS
TALLAHASSEE    FAIR      78  71  79 CALM      30.06S
APALACHICOLA   FAIR      75  72  90 NE7       30.04S
PERRY          FAIR      76  72  86 NE5       30.05F
CROSS CITY     FAIR      75  72  88 NE6       30.03F
JACKSONVILLE   FAIR      74  72  93 NW3       30.05S
$$

!FLZ112-006-005-002-011-260800
...Florida Panhandle...

CITY           SKY/WX    TMP DP  RH WIND       PRES   REMARKS
MARIANNA       FAIR      75  70  84 CALM      30.06S
BONIFAY        FAIR      72  70  93 CALM      30.07F
PANAMA CITY NW FAIR      73  70  90 N3        30.04F
TYNDALL AFB    FAIR      77  68  73 E5        30.05S
TYND DRONE APT FAIR      77  70  78 E8        30.04F
DE FUNIAK SPR  FAIR     N/A N/A N/A CALM      30.08R
EGLIN AFB      PTCLDY    76  71  83 CALM      30.05S
DESTIN         FAIR      81  75  82 CALM      30.05S
HURLBURT       FAIR      74  71  91 E6        30.03F
CRESTVIEW      FAIR      71  69  93 E3        30.08S
PENSACOLA      FAIR      78  72  81 NE3       30.04F
$$

!ALZ063-066-260800
...South Alabama...

CITY           SKY/WX    TMP DP  RH WIND       PRES   REMARKS
DOTHAN         FAIR      72  71  97 CALM      30.11F
OZARK CAIRNS   FAIR      72  71  94 NE3       30.07F
FT RUCKER HELI FAIR      71  69  93 CALM      30.07F
RUCKER HELI 3  NOT AVBL
RUCKER HELI 2  FAIR      73  70  90 CALM      30.07F
FLORALA APT    FAIR      73  69  87 CALM      30.09S
ANDALUSIA      FAIR      76  71  85 CALM      30.07F
TROY           FAIR      73  73 100 CALM      30.09F
EUFALA         FAIR      71  69  93 CALM      30.08F
MOBILE         FAIR      76  73  91 N5        30.06F
$$

!GAZ120>161-260800
...Southwest and South Central Georgia...

CITY           SKY/WX    TMP DP  RH WIND       PRES   REMARKS
THOMASVILLE    FAIR      73  73 100 CALM      30.09S
BAINBRIDGE     FAIR      73  68  83 CALM      30.08S
MOODY AFB      CLOUDY    73  70  92 NE5       30.07F
VALDOSTA       CLOUDY    76  74  93 NE3       30.07F
MOULTRIE       FAIR      75  70  83 NE3       30.09F
BLAKELY        FAIR      72  68  88 CALM      30.08F
ALBANY         FAIR      73  67  81 CALM      30.10F
TIFTON         FAIR      71  71 100 CALM      30.09F
FITZGERALD     FAIR      72  72 100 CALM      30.12S
CORDELE        FAIR      73  70  91 CALM      30.11F
AMERICUS       FAIR      70  70 100 CALM      30.12F
HOMERVILLE     FAIR      72  72 100 CALM      30.09S
$$

!GMZ750-755-770-775-260800
...Coastal and Buoy Obs...

STATION/POSITION TIME  TEMP    WIND        PRES    VSBY  WAVE
                       AIR SEA DIR/SP/G                  HT/PER
                 (UTC) (F)     (DEG/KT/KT) (MB)    (MI)  (FT/S)
KEATON BEACH     0700   77      40/  3/  4 1016.7F
CEDAR KEY        0700   78      50/  9/ 11 1016.9F
C TOWER          0700   84      80/ 16/ 18 1017.3F
APALACHICOLA BUO 0650   85 86   90/ 16/ 19 1015.5F         4/ 5
PANAMA CITY BUOY 0650   86 86   70/ 16/ 17 1015.8F         3/ 6
MOBILE BUOY      0700   85 86   90/ 14/ 17 1015.6F
ORANGE BCH AL BU 0650   85 86  110/  6/  8 1017.0F         2/ 6
$$




USA.gov is the U.S. government's official web portal to all federal, state and local government web resources and services.